Location: Chilton Park
(37.7711°N, 100.0276°W)
Time: 07:29:06
(UTC+00:00)

Cosmos 2228 Rocket - Visible Passes

Search period start: 26 June 2022 00:00
Search period end: 06 July 2022 00:00
Orbit: 616 x 653 km, 82.5° (Epoch: 25 June)

Date Brightness Start Highest point End Pass type
(mag) Time Alt. Az. Time Alt. Az. Time Alt. Az.
27 Jun 6.1 09:56:34 10° NE 09:58:53 14° ENE 10:01:12 10° ESE visible
28 Jun 5.2 10:17:31 10° NNE 10:21:23 29° ENE 10:25:14 10° SE visible
29 Jun 3.7 10:39:19 10° N 10:43:43 63° E 10:48:08 10° SSE visible
30 Jun 6.2 09:26:02 10° NE 09:27:23 11° ENE 09:28:44 10° E visible
01 Jul 5.5 09:46:20 10° NNE 09:49:55 23° ENE 09:53:30 10° SE visible
02 Jul 4.0 10:07:58 10° N 10:12:17 50° E 10:16:38 10° SSE visible
03 Jul 3.1 10:30:06 10° NNW 10:34:32 73° W 10:39:00 10° S visible
04 Jul 5.7 09:15:13 10° NNE 09:18:26 19° ENE 09:21:39 10° ESE visible
05 Jul 4.4 09:36:39 10° N 09:40:52 40° E 09:45:05 10° SSE visible
